Hourly Data Report for November 13, 2020

OTTAWA INTL A
ONTARIO
Current Station Operator: NAVCAN

45°19'00.000" N
75°40'00.000" W
114.90 m
6106001
71628
YOW

Download Data

Hourly Data (November 2020)
Hourly Data Report for November 13, 2020
TIME Temp Definition
°C
Dew Point Definition
°C
Rel Hum Definition
%
Wind Dir Definition
10's deg

Wind Spd Definition
km/h
Visibility Definition
km
Stn Press Definition
kPa
Hmdx Definition


Wind Chill Definition


Weather Definition


00:00 -0.2 -3.2 80 36 2 24.1 100.69   -1 LegendNANA
01:00 -2.2 -4.3 86 3 10 24.1 100.61   -6 Mostly Cloudy
02:00 -2.4 -4.5 86 8 6 24.1 100.57   -5 LegendNANA
03:00 -1.9 -3.7 88 7 8 24.1 100.54   -5 LegendNANA
04:00 -1.2 -3.1 87 1 9 24.1 100.52   -4 Cloudy
05:00 -1.2 -2.5 90 3 14 24.1 100.47   -6 LegendNANA
06:00 -1.3 -2.2 93 4 15 24.1 100.36   -6 LegendNANA
07:00 -0.8 -2.1 91 4 15 24.1 100.33   -5 Mostly Cloudy
08:00 -0.1 -1.6 89 4 15 24.1 100.26   -5 LegendNANA
09:00 1.1 -0.9 86 6 18 24.1 100.16     LegendNANA
10:00 2.3 -0.2 84 8 23 24.1 100.04     Mostly Cloudy
11:00 4.1 0.7 78 11 18 24.1 99.98     LegendNANA
12:00 5.4 -0.2 67 13 13 24.1 99.93     LegendNANA
13:00 4.9 -0.5 68 20 7 24.1 99.74     Mostly Cloudy
14:00 5.9 0.1 67 24 11 24.1 99.77     LegendNANA
15:00 5.7 0.0 67 23 19 24.1 99.81     LegendNANA
16:00 4.7 0.2 72 26 14 24.1 99.85     Mostly Cloudy
17:00 3.1 -0.7 76 27 11 24.1 99.88     LegendNANA
18:00 2.0 -1.0 80 25 8 24.1 99.95     LegendNANA
19:00 2.3 -1.1 79 26 7 24.1 99.94     Clear
20:00 1.0 -1.2 85 21 9 24.1 99.96     LegendNANA
21:00 1.5 -0.6 86 22 10 24.1 99.95     LegendNANA
22:00 2.2 -0.1 84 21 7 24.1 99.94     Mostly Cloudy
23:00 2.2 -0.1 85 22 10 24.1 99.94     LegendNANA

Notes on Data Quality.

Legend

  • E = Estimated
  • M = Missing
  • NA = Not Available*
  • [empty] = Indicates an unobserved value
Date modified: